Starlink 4430

operational
NORAD ID: 53485 Int'l Des: 2022-099 Owner: SPXS Country: US Constellation: starlink
LEOCIRCULARRETROGRADESSO

About Starlink 4430

Description loading...

Live Position

Loading 3D Globe...

Upcoming Passes

Altitude History

Altitude vs Time

uPlot chart will show altitude changes over time

Two-Line Element Set

1 53485U 22099W 25353.31343099 .00000361 00000-0 32619-4 0 9992
2 53485 97.6014 111.5189 0000784 221.0391 139.0775 15.01264384183926
Epoch: Dec 19, 2025 • Age: 22 hours

Current Status

Altitude 565.9 km
Velocity 7.58 km/s
Sub-Earth Point 7.38°N, 66.88°W
Launch Date Aug 12, 2022
Age 3.3 years
Type internet

Technical Details

Classification Payload
Mass 300.00 kg
Dry Mass 275.00 kg
Total Mass 300.00 kg
Length 0.20 m
Diameter 2.80 m
Span 9.00 m
Shape Box + pan
Manufacturer SPXS
Bus Type Starlink
Phase Status In Orbit
Owner/State SPXS/US

Large Constellations

Loading constellations...